Weather History for Kirksville, MO

Change the Weather History Date:

Thursday, December 27, 2012

  Actual Average Record
Temperature  
Mean Temperature 20 °F 27 °F  
Max Temperature 29 °F 35 °F 69 °F (1946)
Min Temperature 11 °F 18 °F -9 °F (1925)
Degree Days  
Heating Degree Days 45 38  
Month to date heating degree days 818 967  
Since 1 July heating degree days 2088 2188  
Cooling Degree Days 0 0  
Month to date cooling degree days 0 0  
Year to date cooling degree days 1321 939  
Moisture  
Dew Point 16 °F    
Average Humidity 83    
Maximum Humidity 96    
Minimum Humidity 69    
Precipitation  
Precipitation 0.00 in 0.04 in 1.18 in (2008)
Month to date precipitation 1.67 1.59  
Year to date precipitation 28.09 39.15  
Sea Level Pressure  
Sea Level Pressure 30.14 in    
Wind  
Wind Speed 7 mph (East)    
Max Wind Speed 15 mph    
Max Gust Speed 20 mph    
Visibility 9 miles    
Events      
T = Trace of Precipitation, MM = Missing Value Source: NWS Daily Summary

Daily Weather History Graph

Daily Weather History Graph

Search for Another Location

Airport:

Trip Planner

Search our weather history database for the weather conditions in past years. The results will help you decide how hot, cold, wet, or windy it might be!

Date:

Astronomy

Dec. 27, 2012 Rise Set
Actual Time 7:31 AM CST 4:51 PM CST
Civil Twilight 7:00 AM CST 5:22 PM CST
Nautical Twilight 6:26 AM CST 5:56 PM CST
Astronomical Twilight 5:53 AM CST 6:29 PM CST
Moon 4:35 PM CST (12/27) 6:42 AM CST (12/27)
Length of Visible Light 10h 21m
Length of Day
9h 20m
Full, 100% of the Moon is Illuminated
Dec 27
Full
Dec 28
Full
Jan 4
Last Quarter
Jan 11
New
Jan 18
First Quarter

Hourly Weather History & Observations

Time (CST) Temp. Windchill Dew Point Humidity Pressure Visibility Wind Dir Wind Speed Gust Speed Precip Events Conditions
12:04 AM 17.6 °F 10.7 °F 12.2 °F 79% 30.16 in 10.0 mi NNE 4.6 mph - N/A   Scattered Clouds
12:51 AM 15.8 °F 8.6 °F 12.2 °F 86% 30.16 in 9.0 mi WNW 4.6 mph - N/A   Mostly Cloudy
12:55 AM 14.0 °F 8.2 °F 12.0 °F 92% 30.22 in 9.0 mi WNW 3.5 mph - N/A   Mostly Cloudy
1:55 AM 15.1 °F 9.4 °F 12.0 °F 88% 30.22 in 9.0 mi NNE 3.5 mph - N/A   Mostly Cloudy
2:04 AM 15.8 °F 8.6 °F 12.2 °F 86% 30.16 in 9.0 mi North 4.6 mph - N/A   Scattered Clouds
2:14 AM 15.8 °F 10.2 °F 12.2 °F 86% 30.17 in 9.0 mi North 3.5 mph - N/A   Mostly Cloudy
2:40 AM 15.8 °F - 12.2 °F 86% 30.18 in 8.0 mi Calm Calm - N/A   Scattered Clouds
2:55 AM 15.1 °F 9.4 °F 12.0 °F 88% 30.24 in 8.0 mi NW 3.5 mph - N/A   Scattered Clouds
3:04 AM 12.2 °F 6.1 °F 10.4 °F 92% 30.18 in 8.0 mi NW 3.5 mph - N/A   Mostly Cloudy
3:31 AM 14.0 °F 6.5 °F 12.2 °F 93% 30.17 in 8.0 mi North 4.6 mph - N/A   Scattered Clouds
3:55 AM 14.0 °F 8.2 °F 10.9 °F 88% 30.23 in 8.0 mi North 3.5 mph - N/A   Clear
4:55 AM 12.9 °F 5.2 °F 10.0 °F 88% 30.23 in 7.0 mi North 4.6 mph - N/A   Clear
5:55 AM 12.0 °F 2.7 °F 9.0 °F 88% 30.22 in 6.0 mi NE 5.8 mph - N/A   Clear
6:55 AM 12.9 °F 6.9 °F 10.0 °F 88% 30.21 in 7.0 mi ENE 3.5 mph - N/A   Clear
7:55 AM 14.0 °F - 10.0 °F 84% 30.22 in 6.0 mi Calm Calm - N/A   Clear
8:55 AM 16.0 °F - 14.0 °F 92% 30.23 in 6.0 mi Calm Calm - N/A   Clear
9:55 AM 18.0 °F 11.1 °F 16.0 °F 92% 30.25 in 6.0 mi SE 4.6 mph - N/A   Scattered Clouds
10:55 AM 21.0 °F 9.9 °F 18.0 °F 88% 30.20 in 7.0 mi ESE 10.4 mph - N/A   Mostly Cloudy
11:55 AM 24.1 °F 17.0 °F 19.0 °F 81% 30.17 in 10.0 mi ESE 5.8 mph - N/A   Overcast
12:55 PM 28.0 °F 19.3 °F 19.9 °F 72% 30.13 in 10.0 mi ESE 9.2 mph - N/A   Overcast
1:50 PM 28.4 °F 18.0 °F 19.4 °F 69% 30.05 in 10.0 mi East 12.7 mph - N/A   Overcast
1:55 PM 28.0 °F 18.1 °F 19.9 °F 72% 30.11 in 10.0 mi ESE 11.5 mph - N/A   Overcast
2:23 PM 28.4 °F 18.0 °F 21.2 °F 74% 30.05 in 10.0 mi SE 12.7 mph - N/A   Overcast
2:55 PM 28.9 °F 18.2 °F 21.0 °F 72% 30.08 in 10.0 mi ESE 13.8 mph - N/A   Overcast
3:03 PM 28.4 °F 18.0 °F 21.2 °F 74% 30.03 in 10.0 mi ESE 12.7 mph - N/A   Overcast
3:17 PM 28.4 °F 17.5 °F 21.2 °F 74% 30.03 in 10.0 mi ESE 13.8 mph - N/A   Mostly Cloudy
3:55 PM 28.0 °F 17.5 °F 19.9 °F 72% 30.06 in 10.0 mi ESE 12.7 mph - N/A   Partly Cloudy
4:55 PM 28.0 °F 20.0 °F 21.0 °F 75% 30.08 in 10.0 mi SE 8.1 mph - N/A   Overcast
5:55 PM 26.1 °F 19.4 °F 19.9 °F 78% 30.08 in 10.0 mi East 5.8 mph - N/A   Overcast
6:55 PM 27.0 °F 19.5 °F 19.9 °F 75% 30.10 in 10.0 mi NE 6.9 mph - N/A   Overcast
7:55 PM 27.0 °F 18.0 °F 21.0 °F 78% 30.08 in 10.0 mi East 9.2 mph - N/A   Overcast
8:55 PM 27.0 °F 18.0 °F 21.0 °F 78% 30.07 in 10.0 mi ESE 9.2 mph - N/A   Overcast
9:55 PM 27.0 °F 18.7 °F 21.0 °F 78% 30.07 in 10.0 mi East 8.1 mph - N/A   Overcast
10:55 PM 26.1 °F 17.6 °F 21.0 °F 81% 30.06 in 9.0 mi ESE 8.1 mph - N/A   Mostly Cloudy
11:55 PM 26.1 °F 17.6 °F 21.0 °F 81% 30.05 in 9.0 mi ESE 8.1 mph - N/A   Mostly Cloudy